When you browse on this site, cookies collect data to enhance your experience and personalize the content and advertising you see.
Visit our Privacy Policy to learn more. By continuing to use the site, you agree to this use of cookies and data.
  • In Germany
  • List of Countries
  • For 7 days
  • Water Temperature
  • Satellite Maps
  • Weather Map
  • Weather Widgets
  • user-avatar
    Login

    Hourly Weather Kowalicha

    Today, 22 May, Wednesday

    Time Temperature Precipitation Wind Pressure Humidity
    00:00 +12°C° 0 mm 3 mps 745 mmHg 91%
    01:00 +11°C° 0 mm 4 mps 745 mmHg 92%
    02:00 +11°C° 0 mm 4 mps 745 mmHg 93%
    03:00 +11°C° 0 mm 4 mps 745 mmHg 93%
    04:00 +11°C° 0 mm 4 mps 745 mmHg 94%
    05:00 +12°C° 0 mm 4 mps 746 mmHg 90%
    06:00 +14°C° 0 mm 5 mps 746 mmHg 86%
    07:00 +15°C° 0 mm 5 mps 746 mmHg 80%
    08:00 +16°C° 0.1 mm 5 mps 746 mmHg 77%
    09:00 +17°C° 0.1 mm 5 mps 746 mmHg 75%
    10:00 +17°C° 0.1 mm 5 mps 746 mmHg 72%
    11:00 +19°C° 0.4 mm 5 mps 746 mmHg 72%
    12:00 +19°C° 0.4 mm 5 mps 746 mmHg 71%
    13:00 +20°C° 0.4 mm 5 mps 746 mmHg 71%
    14:00 +20°C° 0.5 mm 4 mps 746 mmHg 71%
    15:00 +20°C° 0.5 mm 4 mps 746 mmHg 72%
    16:00 +20°C° 0.5 mm 4 mps 746 mmHg 73%
    17:00 +19°C° 0.4 mm 4 mps 746 mmHg 78%
    18:00 +18°C° 0.4 mm 3 mps 746 mmHg 83%
    19:00 +17°C° 0.4 mm 3 mps 746 mmHg 87%
    20:00 +17°C° 0.1 mm 2 mps 747 mmHg 89%
    21:00 +16°C° 0.1 mm 2 mps 747 mmHg 91%
    22:00 +15°C° 0.1 mm 2 mps 747 mmHg 93%
    23:00 +15°C° 0.1 mm 2 mps 748 mmHg 94%

    Tomorrow, 23 May, Thursday

    Time Temperature Precipitation Wind Pressure Humidity
    00:00 +14°C° 0.1 mm 2 mps 748 mmHg 94%
    01:00 +14°C° 0.1 mm 2 mps 748 mmHg 94%
    02:00 +14°C° 0 mm 1 mps 748 mmHg 95%
    03:00 +13°C° 0 mm 1 mps 748 mmHg 95%
    04:00 +13°C° 0 mm 1 mps 749 mmHg 95%
    05:00 +15°C° 0 mm 1 mps 749 mmHg 91%
    06:00 +16°C° 0 mm 2 mps 749 mmHg 88%
    07:00 +18°C° 0 mm 2 mps 750 mmHg 84%
    08:00 +19°C° 0.1 mm 2 mps 750 mmHg 78%
    09:00 +20°C° 0.1 mm 2 mps 750 mmHg 72%
    10:00 +21°C° 0.1 mm 2 mps 750 mmHg 66%
    11:00 +22°C° 0.8 mm 3 mps 750 mmHg 69%
    12:00 +22°C° 0.8 mm 4 mps 750 mmHg 71%
    13:00 +22°C° 0.8 mm 4 mps 750 mmHg 73%
    14:00 +21°C° 0.8 mm 5 mps 750 mmHg 75%
    15:00 +21°C° 0.8 mm 5 mps 750 mmHg 77%
    16:00 +21°C° 0.8 mm 6 mps 750 mmHg 79%
    17:00 +19°C° 0.1 mm 5 mps 750 mmHg 81%
    18:00 +17°C° 0.1 mm 5 mps 751 mmHg 84%
    19:00 +16°C° 0.1 mm 5 mps 751 mmHg 86%
    20:00 +15°C° 0 mm 5 mps 751 mmHg 87%
    21:00 +14°C° 0 mm 4 mps 752 mmHg 88%
    22:00 +13°C° 0 mm 4 mps 752 mmHg 89%
    23:00 +12°C° 0 mm 4 mps 752 mmHg 85%

    Day after tomorrow, 24 May, Friday

    Time Temperature Precipitation Wind Pressure Humidity
    00:00 +12°C° 0 mm 4 mps 752 mmHg 81%
    01:00 +12°C° 0 mm 4 mps 752 mmHg 77%
    02:00 +11°C° 0 mm 3 mps 752 mmHg 78%
    03:00 +11°C° 0 mm 3 mps 752 mmHg 78%
    04:00 +10°C° 0 mm 3 mps 752 mmHg 79%
    05:00 +11°C° 0 mm 3 mps 752 mmHg 78%
    06:00 +12°C° 0 mm 3 mps 752 mmHg 78%
    07:00 +13°C° 0 mm 3 mps 752 mmHg 77%
    08:00 +15°C° 0 mm 4 mps 752 mmHg 73%
    09:00 +17°C° 0 mm 4 mps 752 mmHg 68%
    10:00 +19°C° 0 mm 4 mps 752 mmHg 63%
    11:00 +20°C° 0 mm 4 mps 752 mmHg 61%
    12:00 +21°C° 0 mm 4 mps 752 mmHg 58%
    13:00 +21°C° 0 mm 5 mps 752 mmHg 56%
    14:00 +21°C° 0 mm 4 mps 751 mmHg 56%
    15:00 +22°C° 0 mm 4 mps 751 mmHg 57%
    16:00 +22°C° 0 mm 4 mps 751 mmHg 57%
    17:00 +20°C° 0 mm 4 mps 751 mmHg 62%
    18:00 +19°C° 0 mm 3 mps 751 mmHg 68%
    19:00 +18°C° 0 mm 3 mps 751 mmHg 73%
    20:00 +16°C° 0 mm 2 mps 751 mmHg 76%
    21:00 +15°C° 0 mm 2 mps 751 mmHg 79%
    22:00 +14°C° 0 mm 2 mps 751 mmHg 82%
    23:00 +13°C° 0 mm 1 mps 751 mmHg 82%

    25 May, Saturday

    Time Temperature Precipitation Wind Pressure Humidity
    00:00 +13°C° 0 mm 1 mps 751 mmHg 83%
    01:00 +11°C° 0 mm 0 mps 751 mmHg 83%
    02:00 +11°C° 0 mm 0 mps 751 mmHg 83%
    03:00 +12°C° 0 mm 1 mps 751 mmHg 83%
    04:00 +12°C° 0 mm 1 mps 751 mmHg 84%
    05:00 +14°C° 0 mm 2 mps 751 mmHg 81%
    06:00 +16°C° 0 mm 3 mps 750 mmHg 77%
    07:00 +17°C° 0 mm 3 mps 750 mmHg 74%
    08:00 +18°C° 0.1 mm 4 mps 750 mmHg 68%
    09:00 +20°C° 0.1 mm 4 mps 750 mmHg 62%
    10:00 +21°C° 0.1 mm 5 mps 750 mmHg 56%
    11:00 +21°C° 0.3 mm 5 mps 750 mmHg 58%
    12:00 +21°C° 0.3 mm 5 mps 750 mmHg 60%
    13:00 +21°C° 0.3 mm 5 mps 750 mmHg 62%
    14:00 +21°C° 0.1 mm 5 mps 749 mmHg 60%
    15:00 +21°C° 0.1 mm 5 mps 749 mmHg 58%
    16:00 +21°C° 0.1 mm 5 mps 749 mmHg 55%
    17:00 +20°C° 0 mm 4 mps 749 mmHg 61%
    18:00 +18°C° 0 mm 4 mps 749 mmHg 67%
    19:00 +17°C° 0 mm 3 mps 749 mmHg 72%
    20:00 +16°C° 0 mm 3 mps 750 mmHg 73%
    21:00 +16°C° 0 mm 3 mps 750 mmHg 74%
    22:00 +14°C° 0 mm 3 mps 750 mmHg 75%
    23:00 +13°C° 0 mm 3 mps 750 mmHg 79%

    26 May, Sunday

    Time Temperature Precipitation Wind Pressure Humidity
    00:00 +12°C° 0 mm 3 mps 750 mmHg 83%
    01:00 +11°C° 0 mm 4 mps 750 mmHg 87%
    02:00 +10°C° 0 mm 3 mps 750 mmHg 89%
    03:00 +9°C° 0 mm 3 mps 750 mmHg 90%
    04:00 +9°C° 0 mm 3 mps 750 mmHg 91%
    05:00 +10°C° 0 mm 4 mps 750 mmHg 86%
    06:00 +11°C° 0 mm 4 mps 750 mmHg 81%
    07:00 +12°C° 0 mm 5 mps 750 mmHg 76%
    08:00 +13°C° 0 mm 5 mps 750 mmHg 73%
    09:00 +13°C° 0 mm 6 mps 749 mmHg 71%
    10:00 +14°C° 0 mm 6 mps 749 mmHg 68%
    11:00 +14°C° 0 mm 6 mps 749 mmHg 67%
    12:00 +14°C° 0 mm 6 mps 749 mmHg 66%
    13:00 +14°C° 0 mm 7 mps 749 mmHg 65%
    14:00 +14°C° 0.1 mm 7 mps 749 mmHg 65%
    15:00 +14°C° 0.1 mm 7 mps 749 mmHg 65%
    16:00 +14°C° 0.1 mm 7 mps 748 mmHg 65%
    17:00 +13°C° 0.1 mm 6 mps 749 mmHg 68%
    18:00 +11°C° 0.1 mm 6 mps 749 mmHg 70%
    19:00 +10°C° 0.1 mm 6 mps 749 mmHg 73%
    20:00 +9°C° 0 mm 5 mps 749 mmHg 73%
    21:00 +8°C° 0 mm 5 mps 749 mmHg 74%
    22:00 +7°C° 0 mm 5 mps 750 mmHg 74%
    23:00 +7°C° 0 mm 5 mps 750 mmHg 75%

    27 May, Monday

    Time Temperature Precipitation Wind Pressure Humidity
    00:00 +7°C° 0 mm 5 mps 750 mmHg 75%
    01:00 +6°C° 0 mm 5 mps 750 mmHg 76%
    02:00 +6°C° 0 mm 5 mps 750 mmHg 76%
    03:00 +6°C° 0 mm 5 mps 750 mmHg 77%
    04:00 +6°C° 0 mm 5 mps 751 mmHg 77%
    05:00 +7°C° 0 mm 5 mps 751 mmHg 74%
    06:00 +8°C° 0 mm 5 mps 751 mmHg 71%
    07:00 +10°C° 0 mm 6 mps 751 mmHg 68%
    08:00 +12°C° 0 mm 5 mps 751 mmHg 65%
    09:00 +13°C° 0 mm 5 mps 751 mmHg 62%
    10:00 +14°C° 0 mm 5 mps 751 mmHg 58%
    11:00 +15°C° 0 mm 4 mps 751 mmHg 55%
    12:00 +17°C° 0 mm 4 mps 751 mmHg 51%
    13:00 +19°C° 0 mm 4 mps 751 mmHg 48%
    14:00 +19°C° 0 mm 4 mps 750 mmHg 47%
    15:00 +19°C° 0 mm 3 mps 750 mmHg 46%
    16:00 +20°C° 0 mm 3 mps 749 mmHg 46%
    17:00 +18°C° 0 mm 2 mps 749 mmHg 51%
    18:00 +17°C° 0 mm 2 mps 749 mmHg 57%
    19:00 +16°C° 0 mm 2 mps 749 mmHg 62%
    20:00 +16°C° 0 mm 2 mps 748 mmHg 64%
    21:00 +14°C° 0 mm 3 mps 748 mmHg 65%
    22:00 +13°C° 0 mm 3 mps 748 mmHg 66%
    23:00 +13°C° 0 mm 3 mps 748 mmHg 69%
    Show more